Tracking 33165 objects as of 8-Feb-2026
HD Live streaming from Space Station
objects crossing your sky now

STARLINK-36209

Track STARLINK-36209 now!
10-day predictions


NORAD ID: 67022
Int'l Code: 2025-293V
Perigee: 577.2 km
Apogee: 581.1 km
Inclination: 70.0 °
Period: 96.1 minutes
Semi major axis: 6950 km
RCS: Unknown
Launch date: December 10, 2025
Source: United States (US)
Launch site: AIR FORCE WESTERN TEST RANGE (AFWTR)
Your satellite tracking list
Your tracking list is empty




NASA's NSSDC Master Catalog

Two Line Element Set (TLE):
1 67022U 25293V   26038.53627563 -.00002032  00000-0 -16248-3 0  9997
2 67022  70.0033 170.3827 0002837 266.2821  93.8013 14.98345413 10374
Source of the keplerian elements: AFSPC